This is the latest recevied weather packets stored in our database for station/object K9RJT. If no packets are shown the sender has not sent any weather packets the latest 1 day(s).
| Time | Temp. | Humidity | Pressure | Rain* | Wind** | Luminosity | Snow |
|---|---|---|---|---|---|---|---|
| 1778064051 | 8.33° C | 75% | 1012.9 hPa | 0 mm | - | 0 W/m² | - |
| 1778062537 | 8.89° C | 74% | 1012.9 hPa | 0 mm | - | 0 W/m² | - |
| 1778062234 | 9.44° C | 73% | 1012.8 hPa | 0 mm | - | 0 W/m² | - |
| 1778061630 | 9.44° C | 73% | 1012.6 hPa | 0 mm | - | 0 W/m² | - |
| 1778060420 | 10° C | 71% | 1012.7 hPa | 0 mm | - | 0 W/m² | - |
| 1778060118 | 9.44° C | 71% | 1012.8 hPa | 0 mm | - | 0 W/m² | - |
| 1778059815 | 10° C | 70% | 1012.5 hPa | 0 mm | - | 0 W/m² | - |
| 1778059209 | 10° C | 69% | 1012.6 hPa | 0 mm | - | 0 W/m² | - |
| 1778058908 | 10° C | 69% | 1012.7 hPa | 0 mm | - | 0 W/m² | - |
| 1778058303 | 10° C | 68% | 1012.6 hPa | 0 mm | - | 0 W/m² | - |
| 1778057998 | 10° C | 67% | 1012.5 hPa | 0 mm | - | 0 W/m² | - |
| 1778057392 | 10.56° C | 66% | 1012.6 hPa | 0 mm | - | 0 W/m² | - |
| 1778057089 | 11.11° C | 65% | 1012.3 hPa | 0 mm | - | 0 W/m² | - |
| 1778056785 | 11.11° C | 64% | 1012.2 hPa | 0 mm | - | 0 W/m² | - |
| 1778055876 | 11.11° C | 63% | 1012.2 hPa | 0 mm | - | 0 W/m² | - |
| 1778055572 | 10.56° C | 65% | 1012.4 hPa | 0 mm | - | 0 W/m² | - |
| 1778055271 | 10.56° C | 65% | 1011.8 hPa | 0 mm | - | 0 W/m² | - |
| 1778054664 | 11.67° C | 64% | 1012 hPa | 0 mm | - | 0 W/m² | - |
| 1778054362 | 11.67° C | 65% | 1012 hPa | 0 mm | - | 0 W/m² | - |
| 1778054060 | 11.67° C | 65% | 1011.8 hPa | 0 mm | - | 0 W/m² | - |
| 1778053756 | 11.67° C | 66% | 1011.8 hPa | 0 mm | - | 0 W/m² | - |
| 1778052849 | 12.22° C | 64% | 1011.7 hPa | 0 mm | - | 0 W/m² | - |
| 1778052243 | 11.67° C | 60% | 1011.6 hPa | 0 mm | - | 0 W/m² | - |
| 1778051335 | 12.78° C | 59% | 1011.5 hPa | 0 mm | - | 0 W/m² | - |
| 1778051032 | 12.78° C | 58% | 1011.3 hPa | 0 mm | - | 0 W/m² | - |
* Rain latest hour (hover to see other rain measurements)
** Current wind speed in m/s (hover to see current wind gust speed)